Weather History for Montreal Mirabel, QC

Change the Weather History Date:

Sunday, October 30, 2011

  Actual Average Record
Temperature  
Mean Temperature 42 °F -  
Max Temperature 50 °F 45 °F 69 °F (2012)
Min Temperature 32 °F 30 °F 21 °F (2013)
Degree Days  
Heating Degree Days 24    
Moisture  
Dew Point 22 °F    
Average Humidity 52    
Maximum Humidity 75    
Minimum Humidity 34    
Precipitation  
Precipitation 0.00 in - - ()
Sea Level Pressure  
Sea Level Pressure 30.16 in    
Wind  
Wind Speed 6 mph ()    
Max Wind Speed 13 mph    
Max Gust Speed 21 mph    
Averages and records for this station are not official NWS values.
T = Trace of Precipitation, MM = Missing Value Source: Averaged Metar Reports

Daily Weather History Graph

Daily Weather History Graph

Search for Another Location

Airport:

Trip Planner

Search our weather history database for the weather conditions in past years. The results will help you decide how hot, cold, wet, or windy it might be!

Date:

Astronomy

Oct. 30, 2011 Rise Set
Actual Time 7:32 AM EDT 5:46 PM EDT
Civil Twilight 7:01 AM EDT 6:16 PM EDT
Nautical Twilight 6:26 AM EDT 6:51 PM EDT
Astronomical Twilight 5:52 AM EDT 7:26 PM EDT
Moon 11:59 AM EDT (10/30) 9:03 PM EDT (10/30)
Length of Visible Light 11h 15m
Length of Day
10h 13m
Waxing Crescent, 20% of the Moon is Illuminated
Oct 30
Waxing Crescent
Nov 2
First Quarter
Nov 10
Full
Nov 18
Last Quarter
Nov 25
New

Hourly Weather History & Observations

Time (EDT) Temp. Windchill Dew Point Humidity Pressure Visibility Wind Dir Wind Speed Gust Speed Precip Events Conditions
12:00 AM 37.4 °F 32.1 °F 21.2 °F 52% 30.10 in 25.0 mi North 6.9 mph - N/A   Overcast
1:00 AM 35.6 °F 31.7 °F 21.2 °F 56% 30.11 in 25.0 mi North 4.6 mph - N/A   Overcast
2:00 AM 37.4 °F 33.8 °F 21.2 °F 52% 30.11 in 25.0 mi North 4.6 mph - N/A   Overcast
3:00 AM 37.4 °F 32.1 °F 21.2 °F 52% 30.11 in 25.0 mi North 6.9 mph - N/A   Overcast
4:00 AM 35.6 °F 29.9 °F 21.2 °F 56% 30.10 in 25.0 mi NNW 6.9 mph - N/A   Overcast
5:00 AM 35.6 °F 29.2 °F 21.2 °F 56% 30.10 in 25.0 mi NNW 8.1 mph - N/A   Overcast
6:00 AM 33.8 °F 29.6 °F 21.2 °F 60% 30.11 in 25.0 mi North 4.6 mph - N/A   Overcast
7:00 AM 33.8 °F 27.7 °F 21.2 °F 60% 30.12 in 25.0 mi WSW 6.9 mph - N/A   Overcast
8:00 AM 33.8 °F 28.6 °F 21.2 °F 60% 30.13 in 45.0 mi North 5.8 mph - N/A   Overcast
9:00 AM 35.6 °F 29.9 °F 21.2 °F 56% 30.15 in 45.0 mi NNW 6.9 mph - N/A   Mostly Cloudy
10:00 AM 39.2 °F 33.6 °F 23.0 °F 52% 30.16 in 45.0 mi North 8.1 mph - N/A   Scattered Clouds
11:00 AM 41.0 °F 35.2 °F 21.2 °F 45% 30.17 in 45.0 mi North 9.2 mph - N/A   Scattered Clouds
12:00 PM 44.6 °F 40.2 °F 21.2 °F 39% 30.17 in 45.0 mi NW 8.1 mph - N/A   Scattered Clouds
1:00 PM 46.4 °F 42.4 °F 23.0 °F 40% 30.15 in 45.0 mi WNW 8.1 mph - N/A   Partly Cloudy
2:00 PM 48.2 °F - 21.2 °F 34% 30.15 in 45.0 mi NW 11.5 mph - N/A   Partly Cloudy
3:00 PM 50.0 °F - 23.0 °F 35% 30.15 in 45.0 mi WNW 12.7 mph 20.7 mph N/A   Partly Cloudy
4:00 PM 48.2 °F - 21.2 °F 34% 30.16 in 45.0 mi NW 9.2 mph - N/A   Partly Cloudy
5:00 PM 48.2 °F - 23.0 °F 37% 30.17 in 45.0 mi NW 10.4 mph - N/A   Partly Cloudy
6:00 PM 44.6 °F 42.2 °F 23.0 °F 43% 30.19 in 45.0 mi West 4.6 mph - N/A   Partly Cloudy
7:00 PM 39.2 °F 35.9 °F 24.8 °F 56% 30.20 in 25.0 mi West 4.6 mph - N/A   Partly Cloudy
8:00 PM 39.2 °F 37.0 °F 24.8 °F 56% 30.21 in 25.0 mi West 3.5 mph - N/A   Clear
9:00 PM 35.6 °F 32.8 °F 24.8 °F 65% 30.23 in 25.0 mi West 3.5 mph - N/A   Partly Cloudy
10:00 PM 35.6 °F 31.7 °F 26.6 °F 70% 30.25 in 25.0 mi West 4.6 mph - N/A   Partly Cloudy
11:00 PM 32.0 °F - 24.8 °F 75% 30.26 in 25.0 mi SSW 2.3 mph - N/A   Partly Cloudy